Temp
-21 -22 -23 -23 -23 -24 -24 -26 -26 -27 -28 -28 -28 -28 -28 -28 -27 -27 -27 -25 -24 -23 -22 -22 -20 -20 -19 -18 -17 -16 -16 -16 -16 -15 -15 -14 -14 -14 -13 -14 -14 -15 -14 -14
-20 -21 -22 -22 -23 -23 -23 -24 -25 -26 -27 -27 -28 -28 -27 -27 -27 -27 -27 -26 -24 -23 -23 -22 -21 -21 -20 -19 -19 -18 -18 -17 -18 -16 -15 -15 -14 -14 -14 -13 -15 -15 -15 -14
-20 -20 -21 -22 -23 -23 -23 -24 -25 -25 -26 -27 -27 -27 -27 -27 -27 -26 -26 -26 -25 -24 -22 -22 -22 -21 -20 -20 -19 -19 -19 -18 -17 -17 -16 -16 -15 -15 -14 -14 -14 -14 -15 -14
-19 -20 -21 -22 -22 -23 -24 -23 -24 -25 -25 -26 -27 -26 -26 -27 -26 -26 -26 -25 -25 -24 -23 -23 -22 -21 -21 -20 -20 -20 -20 -19 -19 -17 -17 -17 -16 -15 -15 -14 -14 -15 -15 -15
-19 -20 -20 -21 -21 -22 -22 -23 -23 -24 -25 -25 -26 -26 -26 -26 -26 -26 -25 -25 -25 -24 -24 -23 -22 -22 -21 -21 -20 -20 -20 -20 -20 -19 -18 -18 -17 -16 -16 -16 -15 -14 -14 -14
-19 -20 -21 -21 -21 -22 -22 -22 -23 -23 -25 -25 -25 -26 -26 -26 -26 -26 -25 -25 -25 -24 -24 -24 -22 -22 -22 -21 -20 -20 -20 -20 -20 -20 -19 -19 -19 -17 -16 -16 -16 -15 -15 -14
-19 -20 -21 -21 -21 -22 -22 -23 -23 -23 -24 -25 -25 -26 -26 -26 -26 -26 -26 -25 -25 -24 -25 -24 -24 -23 -21 -22 -21 -21 -21 -20 -20 -20 -20 -19 -19 -19 -18 -16 -16 -15 -15 -14
-19 -20 -20 -21 -21 -22 -22 -23 -23 -24 -24 -25 -25 -25 -26 -26 -26 -26 -26 -26 -26 -25 -25 -25 -24 -24 -22 -22 -22 -21 -21 -21 -20 -20 -20 -20 -19 -19 -19 -18 -16 -16 -16 -15
-20 -21 -22 -22 -22 -22 -22 -22 -23 -23 -24 -25 -25 -25 -26 -26 -26 -27 -26 -27 -27 -26 -25 -25 -25 -25 -24 -23 -22 -22 -21 -21 -21 -20 -21 -20 -19 -19 -18 -18 -18 -17 -16 -16
-20 -21 -22 -22 -22 -21 -22 -22 -23 -23 -24 -24 -25 -25 -26 -26 -27 -27 -27 -27 -27 -27 -27 -26 -25 -25 -25 -25 -23 -22 -22 -22 -21 -21 -21 -20 -20 -20 -19 -19 -18 -18 -18 -16
-20 -20 -21 -21 -21 -21 -21 -22 -22 -23 -24 -24 -25 -26 -26 -26 -27 -27 -27 -28 -28 -28 -28 -27 -26 -26 -25 -25 -25 -23 -22 -22 -22 -22 -21 -21 -21 -20 -20 -19 -19 -19 -18 -18
-20 -20 -21 -21 -21 -21 -21 -21 -22 -23 -23 -24 -25 -26 -26 -27 -27 -28 -28 -28 -28 -28 -28 -28 -28 -27 -26 -26 -26 -25 -25 -24 -23 -22 -22 -22 -22 -21 -21 -21 -20 -19 -19 -18
-20 -21 -20 -20 -21 -21 -21 -22 -22 -22 -23 -24 -25 -26 -26 -27 -27 -28 -28 -29 -29 -29 -29 -29 -29 -29 -28 -28 -27 -26 -25 -25 -25 -24 -22 -22 -22 -22 -22 -21 -21 -20 -19 -19
-20 -21 -21 -20 -20 -21 -22 -22 -22 -22 -23 -24 -25 -26 -26 -27 -28 -29 -29 -30 -30 -30 -30 -30 -30 -30 -29 -29 -28 -28 -27 -26 -25 -25 -24 -23 -23 -22 -22 -22 -22 -21 -21 -21
-20 -20 -20 -20 -21 -21 -22 -22 -22 -23 -23 -24 -25 -26 -27 -28 -28 -29 -30 -30 -31 -31 -31 -31 -31 -31 -30 -30 -30 -29 -29 -28 -27 -26 -25 -25 -25 -24 -23 -22 -22 -22 -22 -22
-21 -20 -20 -21 -21 -22 -22 -22 -22 -23 -24 -24 -25 -26 -27 -28 -29 -30 -31 -31 -31 -31 -32 -32 -32 -31 -31 -31 -31 -31 -30 -30 -29 -28 -27 -26 -26 -25 -24 -23 -23 -23 -23 -22
-20 -21 -21 -21 -22 -22 -22 -22 -23 -23 -24 -24 -25 -26 -27 -29 -29 -30 -31 -32 -32 -32 -32 -33 -32 -32 -32 -32 -31 -31 -31 -31 -31 -30 -29 -28 -27 -26 -26 -25 -24 -23 -23 -23
-21 -21 -21 -21 -22 -22 -22 -22 -23 -24 -24 -25 -26 -26 -28 -29 -30 -31 -32 -32 -33 -33 -33 -33 -33 -34 -33 -33 -32 -32 -32 -32 -32 -31 -31 -30 -29 -28 -27 -26 -26 -25 -24 -24
-21 -21 -21 -22 -22 -22 -22 -23 -23 -24 -24 -25 -26 -27 -28 -30 -30 -31 -32 -33 -33 -34 -34 -34 -34 -34 -34 -33 -33 -33 -32 -32 -32 -32 -32 -31 -30 -29 -29 -28 -27 -26 -26 -25
-21 -21 -21 -22 -22 -22 -22 -23 -23 -24 -25 -25 -26 -27 -29 -30 -31 -32 -33 -33 -34 -34 -35 -35 -35 -35 -35 -34 -34 -34 -34 -33 -33 -33 -32 -32 -32 -31 -31 -30 -29 -28 -27 -27
-21 -21 -22 -22 -22 -22 -23 -23 -24 -25 -25 -26 -27 -28 -29 -30 -32 -32 -33 -34 -34 -35 -35 -35 -35 -36 -35 -35 -35 -35 -35 -34 -34 -34 -33 -33 -33 -32 -32 -32 -31 -30 -29 -29
-21 -21 -22 -22 -22 -23 -23 -23 -24 -25 -25 -26 -27 -28 -30 -31 -32 -33 -34 -34 -35 -35 -35 -36 -36 -36 -36 -36 -36 -36 -36 -35 -35 -35 -34 -34 -34 -33 -33 -33 -32 -32 -31 -31
-21 -21 -22 -22 -22 -23 -23 -24 -25 -25 -26 -27 -28 -29 -30 -32 -33 -33 -34 -35 -35 -35 -36 -36 -36 -36 -36 -36 -36 -36 -36 -36 -36 -35 -35 -35 -34 -34 -34 -34 -33 -33 -32 -32
-22 -22 -22 -22 -23 -23 -24 -24 -25 -25 -26 -27 -29 -30 -31 -32 -33 -34 -35 -35 -35 -36 -36 -36 -36 -36 -36 -37 -36 -36 -36 -36 -36 -36 -35 -35 -35 -35 -35 -34 -34 -34 -33 -33
-22 -22 -22 -22 -23 -23 -24 -25 -25 -26 -27 -28 -30 -31 -32 -33 -34 -35 -35 -36 -36 -36 -36 -36 -36 -36 -36 -36 -36 -36 -36 -36 -36 -36 -35 -35 -35 -35 -35 -35 -34 -34 -34 -33
-22 -22 -22 -23 -23 -24 -25 -25 -26 -26 -28 -29 -31 -32 -33 -34 -35 -35 -36 -36 -36 -36 -36 -36 -36 -36 -36 -36 -36 -36 -36 -36 -36 -36 -36 -36 -36 -36 -36 -36 -35 -35 -35 -34
-22 -22 -23 -23 -24 -25 -25 -26 -26 -27 -29 -30 -31 -33 -34 -35 -35 -36 -36 -36 -36 -36 -36 -36 -37 -37 -37 -37 -37 -37 -37 -37 -37 -37 -37 -37 -37 -37 -36 -36 -36 -36 -36 -35
Height
5552 5541 5530 5518 5505 5494 5483 5473 5463 5455 5446 5439 5436 5435 5436 5437 5442 5447 5452 5456 5463 5470 5480 5489 5499 5509 5521 5534 5548 5560 5566 5577 5588 5595 5605 5618 5629 5635 5647 5656 5663 5672 5681 5689
5554 5543 5531 5521 5509 5497 5486 5475 5465 5454 5447 5437 5433 5431 5431 5432 5436 5441 5446 5451 5457 5463 5472 5482 5490 5500 5511 5522 5533 5545 5554 5560 5570 5580 5591 5604 5617 5621 5632 5639 5648 5656 5667 5677
5553 5542 5530 5521 5511 5500 5487 5476 5466 5455 5446 5437 5430 5427 5427 5427 5430 5435 5440 5446 5451 5457 5464 5474 5482 5491 5501 5511 5522 5532 5542 5550 5557 5569 5579 5588 5598 5606 5617 5623 5632 5640 5651 5661
5553 5541 5531 5521 5509 5500 5489 5478 5467 5457 5447 5439 5431 5424 5422 5422 5423 5427 5432 5439 5445 5451 5457 5466 5474 5482 5491 5500 5509 5518 5528 5538 5546 5553 5563 5574 5583 5592 5600 5608 5619 5628 5635 5644
5550 5541 5533 5521 5511 5501 5490 5481 5469 5459 5448 5439 5431 5423 5419 5417 5417 5419 5423 5429 5435 5442 5448 5455 5464 5472 5480 5488 5496 5504 5514 5523 5533 5541 5550 5559 5567 5574 5582 5591 5600 5610 5620 5628
5546 5537 5526 5518 5507 5497 5487 5480 5469 5457 5447 5438 5429 5423 5416 5412 5411 5411 5413 5418 5425 5431 5436 5444 5453 5461 5468 5476 5484 5493 5502 5510 5519 5528 5536 5545 5555 5561 5567 5577 5586 5595 5604 5612
5545 5535 5525 5514 5504 5493 5484 5477 5463 5453 5443 5436 5428 5421 5414 5408 5405 5403 5403 5406 5412 5419 5425 5432 5439 5449 5457 5465 5472 5479 5489 5498 5506 5514 5524 5532 5542 5548 5555 5564 5573 5581 5591 5600
5542 5532 5523 5511 5502 5491 5481 5470 5461 5450 5441 5433 5425 5417 5409 5403 5398 5395 5394 5395 5399 5405 5411 5418 5425 5432 5443 5452 5460 5468 5475 5483 5492 5500 5509 5519 5528 5536 5544 5551 5560 5567 5575 5584
5539 5529 5518 5508 5498 5487 5476 5467 5458 5448 5439 5429 5421 5413 5405 5397 5392 5388 5385 5385 5387 5391 5397 5404 5411 5418 5426 5435 5445 5453 5462 5468 5477 5485 5493 5503 5512 5520 5529 5539 5546 5551 5560 5568
5533 5524 5514 5503 5493 5482 5472 5463 5453 5445 5435 5425 5415 5406 5398 5391 5385 5380 5377 5376 5375 5378 5383 5388 5395 5402 5410 5420 5428 5437 5445 5453 5461 5469 5478 5487 5495 5503 5512 5521 5531 5538 5545 5553
5529 5519 5510 5499 5489 5479 5468 5459 5449 5440 5430 5421 5410 5400 5391 5385 5378 5373 5369 5367 5366 5366 5369 5374 5379 5386 5394 5403 5411 5419 5428 5437 5446 5453 5461 5469 5478 5486 5494 5503 5514 5522 5530 5537
5524 5514 5504 5494 5484 5474 5463 5454 5444 5434 5424 5414 5404 5395 5385 5377 5371 5364 5360 5358 5356 5356 5356 5359 5363 5369 5376 5384 5392 5402 5410 5418 5427 5436 5443 5452 5461 5469 5477 5486 5496 5505 5513 5521
5518 5509 5498 5488 5479 5469 5458 5449 5438 5428 5417 5407 5398 5388 5378 5369 5363 5357 5351 5348 5346 5345 5344 5347 5350 5354 5359 5365 5373 5381 5391 5399 5407 5416 5424 5434 5442 5451 5459 5468 5476 5485 5493 5502
5510 5501 5492 5481 5472 5463 5452 5442 5431 5421 5411 5400 5390 5379 5370 5361 5353 5347 5342 5338 5335 5334 5334 5336 5338 5340 5344 5350 5357 5363 5371 5380 5388 5397 5404 5414 5423 5431 5440 5449 5458 5465 5473 5482
5502 5493 5485 5475 5465 5455 5445 5435 5424 5414 5403 5393 5382 5371 5361 5352 5344 5338 5332 5328 5324 5323 5323 5324 5326 5329 5332 5335 5340 5347 5354 5361 5369 5378 5385 5392 5403 5412 5420 5428 5436 5444 5452 5461
5494 5485 5475 5466 5456 5446 5437 5427 5417 5406 5396 5384 5374 5363 5352 5342 5335 5329 5322 5318 5315 5313 5313 5313 5313 5316 5318 5322 5326 5331 5337 5343 5351 5359 5367 5374 5382 5391 5398 5406 5414 5422 5430 5440
5486 5477 5467 5458 5448 5438 5428 5418 5407 5397 5387 5376 5365 5353 5342 5332 5325 5319 5313 5308 5305 5304 5304 5302 5304 5306 5307 5309 5313 5316 5321 5326 5332 5339 5347 5353 5361 5370 5378 5385 5393 5401 5409 5416
5476 5467 5459 5450 5441 5430 5419 5408 5398 5388 5378 5367 5355 5343 5332 5323 5315 5309 5304 5299 5296 5295 5295 5294 5295 5296 5297 5299 5301 5305 5308 5312 5317 5321 5327 5334 5341 5348 5356 5364 5372 5379 5386 5395
5467 5459 5450 5441 5431 5420 5410 5400 5390 5380 5368 5356 5344 5333 5322 5313 5305 5299 5294 5290 5287 5286 5286 5285 5285 5286 5287 5289 5291 5294 5296 5300 5303 5307 5311 5315 5321 5328 5334 5341 5349 5357 5363 5371
5459 5450 5441 5431 5421 5410 5401 5391 5381 5370 5358 5345 5333 5322 5312 5303 5295 5290 5285 5281 5279 5277 5276 5276 5276 5277 5278 5280 5281 5282 5284 5287 5289 5293 5296 5300 5304 5308 5314 5320 5327 5334 5342 5348
5450 5441 5431 5422 5411 5401 5391 5381 5370 5359 5346 5334 5322 5311 5302 5293 5286 5280 5276 5272 5270 5268 5268 5268 5268 5268 5269 5270 5271 5273 5273 5275 5277 5279 5282 5285 5288 5291 5295 5299 5305 5312 5319 5325
5440 5431 5421 5412 5401 5391 5381 5370 5359 5347 5335 5323 5311 5300 5291 5283 5277 5272 5267 5264 5262 5261 5260 5260 5260 5261 5261 5261 5262 5262 5263 5264 5265 5266 5268 5271 5274 5276 5279 5283 5287 5290 5295 5302
5429 5421 5411 5401 5390 5381 5370 5359 5347 5335 5323 5311 5300 5289 5281 5274 5267 5263 5259 5256 5255 5254 5253 5253 5253 5253 5253 5253 5253 5252 5252 5253 5254 5255 5255 5257 5259 5261 5264 5266 5270 5273 5276 5280
5418 5409 5399 5389 5379 5369 5358 5346 5334 5322 5310 5299 5288 5278 5271 5264 5259 5254 5251 5249 5248 5247 5246 5245 5245 5244 5244 5243 5242 5242 5241 5241 5241 5242 5242 5243 5244 5245 5247 5249 5252 5255 5258 5262
5407 5397 5387 5378 5367 5357 5345 5334 5321 5310 5298 5287 5276 5268 5261 5255 5250 5246 5244 5242 5240 5239 5238 5237 5235 5234 5232 5231 5230 5229 5228 5228 5227 5227 5227 5228 5229 5230 5230 5232 5234 5237 5240 5244
5395 5385 5375 5365 5355 5344 5333 5321 5309 5297 5286 5275 5266 5258 5252 5246 5242 5239 5236 5234 5232 5230 5228 5226 5224 5222 5220 5218 5216 5214 5212 5211 5211 5211 5211 5211 5212 5213 5214 5215 5217 5219 5222 5225
5383 5373 5363 5353 5343 5332 5320 5308 5296 5285 5274 5264 5256 5249 5243 5239 5235 5232 5229 5226 5223 5220 5218 5215 5212 5209 5205 5202 5200 5198 5197 5195 5194 5194 5194 5195 5196 5196 5197 5199 5201 5204 5207 5209
Wind_Speed
54 53 53 55 58 59 59 57 52 43 34 23 16 18 23 32 36 36 33 37 49 71 75 58 68 78 85 90 79 72 59 78 55 76 86 82 80 62 73 85 76 74 73 72
53 53 53 53 55 56 59 58 55 51 41 33 20 14 21 28 35 39 38 36 46 63 76 71 63 75 85 89 88 86 62 62 46 62 53 75 83 53 81 62 83 85 77 75
53 54 53 53 53 54 57 58 57 54 48 38 29 17 16 25 32 38 41 39 42 56 81 56 64 69 82 88 93 89 87 75 77 60 60 60 68 57 74 67 73 85 80 79
52 54 53 52 53 54 53 57 57 55 52 45 34 27 15 19 30 36 41 45 47 52 65 73 60 62 72 75 86 86 90 63 57 75 69 57 55 65 68 77 64 73 78 77
52 52 52 53 52 53 56 55 56 57 54 51 40 31 24 14 23 33 40 43 47 54 55 68 70 60 68 69 72 77 81 81 78 66 73 72 64 63 53 57 72 63 68 66
51 52 55 54 54 55 57 57 56 57 56 52 48 35 27 22 15 26 37 44 48 52 59 59 77 71 64 68 78 75 74 73 71 73 85 80 73 75 70 58 58 70 68 68
49 50 52 55 53 55 56 59 59 58 58 54 51 43 32 25 21 18 29 40 48 54 59 63 61 77 83 69 73 80 79 73 72 72 76 79 76 76 75 66 62 64 69 71
47 49 49 53 55 54 55 57 59 59 59 57 52 46 38 28 23 21 21 34 43 51 58 63 64 63 81 75 69 71 76 79 75 72 73 76 78 81 77 80 77 66 65 64
43 46 47 49 53 55 55 59 58 59 59 58 55 49 42 34 25 22 20 23 35 46 55 63 66 64 67 79 79 73 77 78 84 84 79 74 76 80 81 80 83 86 77 70
42 45 46 48 52 56 57 59 59 60 59 58 57 51 46 39 30 23 21 21 26 38 47 57 65 68 66 66 77 83 79 75 79 85 86 78 75 77 81 81 81 88 90 86
41 44 46 48 51 56 58 59 59 60 60 59 57 53 48 42 34 27 23 22 23 30 40 48 59 64 68 71 68 75 83 83 80 78 86 83 81 79 78 82 81 83 87 88
42 43 47 49 52 56 58 60 60 61 62 60 57 54 49 44 37 31 26 23 23 25 34 43 49 58 64 66 69 71 71 73 77 80 81 79 78 80 79 78 80 82 86 85
43 43 47 51 53 56 58 60 60 62 63 61 57 54 50 46 39 33 28 25 23 24 29 37 45 49 58 64 67 69 71 69 68 74 82 82 80 78 76 73 74 76 81 85
42 44 47 52 55 57 59 60 61 62 63 61 58 55 52 47 40 34 29 25 25 26 27 32 39 46 49 57 65 69 69 72 72 69 71 78 81 83 82 80 77 75 75 76
43 46 47 52 55 58 58 61 62 63 63 61 60 56 53 48 41 34 29 26 25 25 26 27 32 39 45 48 53 63 71 71 72 73 71 68 69 73 80 84 81 77 76 76
45 47 50 53 56 58 59 61 62 63 62 62 61 57 54 49 41 35 30 27 26 24 24 27 31 33 39 43 47 50 60 69 74 75 74 72 70 70 73 77 85 83 81 79
45 49 51 54 57 58 60 62 63 63 62 62 61 59 55 49 42 35 30 27 26 23 22 26 27 29 34 39 43 44 49 54 63 71 72 72 74 74 73 72 75 81 83 86
46 50 52 55 57 59 61 63 63 62 62 62 62 59 54 48 42 35 30 27 25 23 22 23 24 26 30 32 37 41 41 47 50 59 67 73 74 76 77 75 74 74 75 76
48 51 53 56 58 60 62 64 63 62 62 63 63 59 54 47 41 34 30 26 24 24 22 23 24 26 28 31 32 35 38 40 43 49 53 62 72 76 77 77 78 78 75 74
49 52 55 57 59 61 64 64 64 63 63 64 63 59 53 46 39 33 29 25 23 23 23 23 24 25 26 27 29 31 34 36 38 40 44 50 55 63 73 78 79 79 79 77
51 54 56 59 61 62 65 65 64 64 65 65 62 58 51 44 38 32 28 24 22 22 21 21 22 23 24 25 26 28 31 33 35 38 40 42 45 50 57 63 72 79 81 81
53 56 59 60 62 64 66 66 65 65 67 65 61 55 49 42 36 30 26 22 21 20 20 20 21 22 23 24 25 27 29 31 33 35 37 39 41 44 46 50 58 63 71 80
55 58 61 62 64 65 67 66 66 67 68 64 58 52 45 39 34 28 24 21 19 19 20 21 22 23 24 24 26 28 30 32 33 35 37 39 40 42 44 46 49 52 58 64
57 60 62 63 65 66 67 66 67 69 68 62 56 49 42 36 31 26 22 20 18 18 21 23 24 25 26 28 30 31 32 34 35 36 38 39 40 42 43 46 48 51 53 56
59 62 63 65 67 67 68 68 69 70 66 59 52 45 39 33 27 24 21 20 19 20 23 25 27 28 29 31 33 34 36 37 38 39 41 42 42 44 45 46 47 49 51 53
60 63 64 66 68 68 68 69 70 69 62 55 48 41 35 30 25 21 20 21 23 24 26 27 29 31 33 35 36 37 38 38 39 39 40 40 42 42 43 44 45 47 48 50
61 64 65 68 68 69 70 70 70 65 58 50 44 37 31 27 22 21 22 23 24 25 28 30 33 34 35 36 36 36 37 37 38 38 38 38 40 41 42 42 41 42 44 45
Wind_Direction
3 2 6 8 8 9 9 9 8 5 359 336 309 263 245 239 234 231 225 215 213 207 206 213 207 209 209 209 210 210 216 219 221 229 221 221 222 228 218 222 217 220 223 227
2 2 4 8 9 8 9 8 8 6 3 354 337 290 251 241 236 232 228 222 215 212 205 215 211 209 211 211 211 217 225 199 217 219 209 222 224 215 218 221 214 221 224 227
0 1 4 7 9 9 7 8 7 6 4 0 348 328 274 247 240 234 231 227 218 215 214 212 215 215 210 216 215 220 224 229 226 222 214 215 220 220 208 222 222 221 223 227
360 359 3 4 7 9 9 7 6 5 4 2 356 343 325 262 244 237 234 229 220 218 219 214 212 214 214 217 221 224 226 219 235 231 219 217 212 216 221 224 223 221 223 229
357 359 1 5 4 6 9 7 5 4 5 2 1 348 340 305 257 241 236 232 226 221 221 222 214 216 217 220 221 222 224 228 230 234 230 226 225 206 211 215 223 223 216 223
354 357 358 3 3 5 6 6 6 5 2 2 0 356 341 328 292 254 241 234 230 226 224 225 224 216 215 225 224 221 222 225 229 232 235 237 238 237 231 218 223 220 223 224
352 355 357 0 3 3 4 3 3 4 358 2 359 356 347 331 316 283 248 237 232 228 225 225 226 222 221 226 223 225 226 227 228 229 232 237 235 238 242 230 209 210 215 219
350 351 356 358 1 2 3 2 1 0 359 358 358 355 349 338 322 308 272 243 235 230 228 227 228 228 224 222 223 224 230 227 228 229 230 229 231 236 237 241 228 213 212 219
347 349 352 357 358 359 1 1 360 358 359 353 355 352 349 343 329 311 295 262 241 233 229 228 228 229 227 227 225 225 228 227 229 232 233 230 229 231 235 238 241 240 232 228
345 347 351 354 355 357 360 358 357 357 356 352 351 350 347 344 334 316 300 279 255 239 234 229 229 230 230 230 231 227 229 227 229 231 233 232 232 231 232 235 237 241 243 241
344 344 349 352 353 355 357 356 356 355 353 351 349 347 345 344 336 321 303 287 268 250 238 233 229 229 231 231 229 232 232 232 232 231 232 232 235 237 237 234 235 237 240 244
343 343 347 351 352 353 354 354 354 353 350 349 347 346 343 340 336 325 310 293 277 262 245 236 233 231 232 230 231 230 232 234 234 234 233 232 233 235 238 239 236 235 237 240
340 343 346 349 349 350 352 351 352 351 348 347 345 344 340 338 336 327 314 299 281 265 249 240 235 233 230 231 230 230 231 234 235 237 236 236 235 234 234 235 238 239 238 238
338 342 345 347 347 348 350 349 349 349 346 345 342 342 339 336 333 327 315 300 285 272 260 245 237 234 233 229 229 229 230 232 234 235 235 237 237 238 237 236 236 238 240 241
337 341 344 345 345 346 347 347 347 347 344 343 341 341 338 333 330 325 315 299 287 276 265 253 244 239 235 234 232 230 229 229 230 232 233 234 235 238 238 238 237 238 238 240
336 339 342 343 343 344 345 344 345 344 343 340 340 339 335 330 328 323 314 300 288 280 269 256 247 242 239 237 235 234 232 230 229 230 231 232 234 235 237 238 239 239 240 240
335 337 339 339 340 341 342 343 343 342 340 339 339 338 332 329 326 321 313 300 289 282 271 261 255 249 245 239 238 238 237 236 234 232 231 230 232 234 234 234 236 238 239 241
333 336 336 336 338 339 340 341 341 339 338 338 337 335 330 328 324 319 311 301 290 281 270 265 260 252 248 244 240 239 240 238 237 237 235 233 232 232 234 235 235 234 234 235
333 334 334 334 337 337 338 338 337 337 337 337 335 333 329 326 321 317 310 301 289 280 271 262 259 256 252 248 245 242 242 242 240 238 238 237 236 234 233 232 233 235 236 235
332 333 332 334 335 336 337 335 335 336 336 336 334 331 328 324 318 314 309 300 288 278 271 265 259 257 256 253 250 248 246 244 243 242 241 240 239 238 237 236 235 234 234 234
330 330 331 333 332 335 334 333 334 335 336 335 332 329 327 322 316 312 307 298 285 275 270 266 263 259 257 255 253 250 250 249 248 246 245 244 243 242 240 240 240 238 237 235
328 329 330 331 332 333 331 332 334 335 335 333 330 327 325 320 314 309 303 292 282 273 267 264 263 262 260 259 257 256 254 253 252 251 250 248 247 246 245 243 242 241 241 240
326 327 329 330 330 331 330 332 333 334 333 331 329 326 323 318 312 307 299 290 279 270 266 265 266 267 266 264 262 261 260 259 258 256 256 254 252 250 249 247 245 243 243 242
323 326 327 328 329 329 329 331 332 333 331 329 327 325 321 316 310 304 296 287 279 270 267 269 270 270 270 269 268 267 266 265 263 261 259 258 257 256 254 251 248 246 244 243
323 325 325 327 328 328 328 331 332 331 329 328 325 323 319 315 309 302 294 287 282 279 278 277 277 276 275 274 272 271 269 267 265 264 263 261 259 257 255 254 253 251 249 246
322 323 324 326 326 327 329 331 331 329 328 326 324 321 318 312 306 299 293 290 288 287 285 283 282 281 280 279 277 275 273 271 269 266 263 261 260 258 256 254 252 251 250 249
321 322 324 325 325 327 329 331 329 328 327 324 323 320 315 309 303 297 295 295 294 293 292 291 288 286 284 282 279 276 273 271 269 267 265 262 259 257 256 255 254 252 250 249